ONEWEB-0368 (49294 NORAD) Tracking and Keplerian Element Data

This shows tracking and keplerian element data for the satellite.

Feedback or suggestion? Click here.




ElementValue
Catalog49294
NameONEWEB-0368
Epoch Orbit354
Epoch Day339.91667824
Epoch Year2021
RAAN275.0684
Inclination87.2058
Eccentricity0.0013474
Argument of Perigee85.7511
Mean Anonmoly31.6493
Mean Motion14.88424725
Decay Rate-0.00051721
L11 49294U 21090R 21339.91667824 -.00051721 00000+0 -56212-2 0 9996
L22 49294 87.2058 275.0684 0013474 85.7511 31.6493 14.88424725 3541

Live tracking and technical data element details for ONEWEB-0368 (NORAD 49294). ONEWEB-0368 can be tracked NOW for your location showing map with azimuth and elevation plus other details from your city location.

Track the satellite on the map from your city or location and see movement details for azimuth, elevation, latitude, longitude, range, height, and movement on the map or in text.







IsCatalogInMostPopularTable: catalog: 49294, numindb: 4
Update: records affected: 1



GetName: 49294 ONEWEB-0368

Hit Count: updated at: Mon, 06 Dec 2021 14:04:18 GMT